To NAV CANADA Home Page Login to a new session Search on AWWS site Feedback and Comments Disclaimer Vers la page française équivalente Tips FAQ What's new on the site To the Forecasts and Observations / NOTAM section To "File a Flight Plan" website Publications and other links Update of the User's profile FIC Telephone Numbers My Weather Data Folder Route Weather Data Regional Weather Data Local Weather Data To the Forecasts and Observations / NOTAM section
Request Generated 06/26/2017 at 22:31:47 UTC . Weather information available at that time is displayed.

METAR/TAF

CHESTERFIELD INLET/NU    

METAR CYCS 262200Z 11009KT 15SM FEW030 BKN100 BKN280 07/03 A2996 RMK
SC1AC6CI1 SC TR CI TR 9.1/5.0/0/NIL LAST STFD OBS/NXT 271200Z SLP149=
METAR CYCS 262100Z 11010KT 15SM FEW030 BKN100 BKN280 08/04 A2996 RMK
SC1AC5CI1 SC TR SLP148=
METAR CYCS 262000Z 11011KT 15SM FEW030 BKN100 BKN280 08/04 A2996 RMK
SC1AC5CI1 SC TR SLP146=

CYCS - No TAF is issued for this station

Your time UTC time
Weather data provided by Environment Canada and NAV CANADA